Location: Pradons
(44.4746°N, 4.3578°E)
Time: 20:09:09
(UTC+00:00)

Cosmos 1703 - Pass Details

Date: 11 August 2020
Orbit: 523 x 541 km, 82.5° (Epoch: 01 October)

Event Time Altitude Azimuth Distance (km) Brightness Sun altitude
Rises 03:26:09 0° 345° (NNW) 2,710 7.1 -12.5°
Reaches altitude 10° 03:28:22 10° 339° (NNW) 1,811 6.1 -12.2°
Maximum altitude 03:32:10 44° 267° (W) 750 3.6 -11.6°
Drops below altitude 10° 03:35:55 10° 194° (SSW) 1,790 5.5 -11.1°
Enters shadow 03:36:21 - 193° (SSW) 1,959 5.7 -11.0°
